Regional Weather Roundup
Issued by NWS

Home | Current Version | Previous Version | Graphics & Text | Print | Product List | Glossary On
Versions: 1 2 3 4 5 6 7 8 9 10 11 12 13 14 15 16 17 18 19 20 21 22 23 24 25 26 27 28 29 30 31 32 33 34 35 36 37 38 39 40 41 42 43 44 45 46 47 48 49 50
596
ASUS43 KOAX 192202
RWRNE

WEATHER ROUNDUP FOR NEBRASKA
NATIONAL WEATHER SERVICE OMAHA NE
400 PM CST SUN NOV 19 2017

NOTES: SATELLITE DATA IS BEING USED TO AUGMENT CLOUD COVER ABOVE
       12000 FEET.
       "FAIR" INDICATES FEW OR NO CLOUDS BELOW 12,000 FEET WITH NO
       SIGNIFICANT WEATHER AND/OR OBSTRUCTIONS TO VISIBILITY.


NEZ001>004-019>022-054>056-192300-
NEBRASKA PANHANDLE

CITY           SKY/WX    TMP DP  RH WIND       PRES   REMARKS
SCOTTSBLUFF    CLOUDY    58   5  12 W18G28    29.92F
ALLIANCE       SUNNY     55   8  15 W14       29.90F
CHADRON        CLOUDY    60  16  18 W12       29.85F
GORDON         FAIR      56  15  19 W6        29.87F
KIMBALL        CLOUDY    55  11  17 W20G25    29.97F
SIDNEY         CLOUDY    52  24  33 S10       29.97F
$$

NEZ057>060-069>072-079>082-192300-
SOUTHWEST NEBRASKA

CITY           SKY/WX    TMP DP  RH WIND       PRES   REMARKS
NORTH PLATTE   CLOUDY    58  18  21 W9        29.94F
IMPERIAL       CLOUDY    59  18  20 SW9       29.97F
LEXINGTON      SUNNY     58  24  27 SW7       29.97S
MCCOOK         SUNNY     60  21  22 SW12      29.97F
OGALLALA       CLOUDY    58  20  22 W6        29.94F
$$

NEZ005>010-023>029-035>040-094-192300-
NORTH CENTRAL NEBRASKA

CITY           SKY/WX    TMP DP  RH WIND       PRES   REMARKS
VALENTINE      SUNNY     55  19  24 SW9       29.88S
AINSWORTH      SUNNY     56  21  25 SW7       29.89F
BROKEN BOW     SUNNY     56  24  29 W10       29.93F
O`NEILL        CLEAR     56  25  30 SW9       29.90F
ORD            SUNNY     56  21  25 SW14      29.92F
THEDFORD       CLOUDY    58  20  23 W9G17     29.91F
$$

NEZ041-046>049-061>064-073>077-083>087-192300-
SOUTH CENTRAL NEBRASKA

CITY           SKY/WX    TMP DP  RH WIND       PRES   REMARKS
GRAND ISLAND   SUNNY     55  27  34 SW12      29.98F
AURORA         SUNNY     54  24  31 SW14      29.98F
HASTINGS       SUNNY     56  20  24 SW13G21   29.99F
HEBRON         SUNNY     57  23  26 SW10      30.03F
HOLDREGE       SUNNY     57  24  27 SW12      29.98F
KEARNEY        SUNNY     57  22  25 SW14      29.97F
YORK           SUNNY     55  25  30 SW9       29.99F
$$

NEZ011>018-030>034-042>045-192300-
NORTHEAST NEBRASKA

CITY           SKY/WX    TMP DP  RH WIND       PRES   REMARKS
NORFOLK        CLEAR     55  22  27 SW15G22   29.93F
ALBION         CLEAR     56  25  29 SW13      29.94F
BLAIR          CLEAR     54  28  36 SW14      29.98F
COLUMBUS       CLEAR     55  25  31 SW13      29.97F
FREMONT        CLEAR     54  27  35 S6        29.99F
TEKAMAH        CLOUDY    54  25  32 SW15      29.97F
WAYNE          CLEAR     53  19  26 SW10      29.93F
$$

NEZ050>053-065>068-078-088>093-192300-
SOUTHEAST NEBRASKA

CITY           SKY/WX    TMP DP  RH WIND       PRES   REMARKS
LINCOLN        CLEAR     56  24  29 SW17      30.02F
OMAHA EPPLEY   PTCLDY    55  23  28 SW14      30.00F
BEATRICE       SUNNY     56  23  27 SW15      30.03F
FALLS CITY     CLEAR     55  24  30 SW10      30.06F
NEBRASKA CITY  CLEAR     53  26  34 SW12      30.04S
PLATTSMOUTH    CLEAR     55  26  32 SW12G20   30.02F
$$

NEZ044-045-051>053-067-192300-
OMAHA AREA

CITY           SKY/WX    TMP DP  RH WIND       PRES   REMARKS
OMAHA EPPLEY   PTCLDY    55  23  28 SW14      30.00F
BLAIR          CLEAR     54  28  36 SW14      29.98F
FREMONT        CLEAR     54  27  35 S6        29.99F
MILLARD        CLEAR     56  25  30 SW6       30.01S
OFFUTT AFB     CLEAR     55  24  29 SW8       30.00F
PLATTSMOUTH    CLEAR     55  26  32 SW12G20   30.02F
WAHOO          FAIR      56  25  30 SW16      29.99F
$$




USA.gov is the U.S. government's official web portal to all federal, state and local government web resources and services.